Tracking 23731 objects as of 27-Sep-2021
HD Live streaming from Space Station
objects crossing your sky now

STARLINK-2334

Track STARLINK-2334 now!
10-day predictions
STARLINK-2334 is classified as:


NORAD ID: 47792
Int'l Code: 2021-018F
Perigee: 553.8 km
Apogee: 554.9 km
Inclination: 53.1 °
Period: 95.6 minutes
Semi major axis: 6925 km
RCS: Unknown
Launch date: March 11, 2021
Source: United States (US)
Launch site: AIR FORCE EASTERN TEST RANGE (AFETR)
aabbcc
Your satellite tracking list
Your tracking list is empty




NASA's NSSDC Master Catalog

Two Line Element Set (TLE):
1 47792U 21018F   21269.46879940  .00000205  00000-0  32626-4 0  9998
2 47792  53.0573 327.5137 0000772 111.7222 248.3850 15.06410110 31579
Source of the keplerian elements: AFSPC